| time (UTC) | temp F | wind direction | speed MPH | gust MPH | rain 1hr in | rain 24hr in | rain mn in | humidity % | barometer mb |
| 20260503211505 | 73 | 303 | 4.0 | 5.0 | 0.00 | 0.00 | 0.00 | 30 | 1011.1 |
| 20260503211000 | 73 | 313 | 2.0 | 2.0 | 0.00 | 0.00 | 0.00 | 33 | 1011.0 |
| 20260503210457 | 72 | 217 | 4.0 | 6.0 | 0.00 | 0.00 | 0.00 | 31 | 1011.2 |
| 20260503205957 | 73 | 242 | 4.0 | 6.0 | 0.00 | 0.00 | 0.00 | 29 | 1011.0 |
| 20260503205454 | 73 | 264 | 5.0 | 7.0 | 0.00 | 0.00 | 0.00 | 28 | 1011.0 |
| 20260503204951 | 73 | 220 | 3.0 | 3.0 | 0.00 | 0.00 | 0.00 | 32 | 1011.1 |
| 20260503204448 | 73 | 286 | 5.0 | 7.0 | 0.00 | 0.00 | 0.00 | 32 | 1011.2 |
| 20260503203944 | 73 | 210 | 3.0 | 5.0 | 0.00 | 0.00 | 0.00 | 34 | 1011.1 |
| 20260503203442 | 72 | 310 | 2.0 | 3.0 | 0.00 | 0.00 | 0.00 | 36 | 1011.0 |
| 20260503202939 | 73 | 256 | 3.0 | 5.0 | 0.00 | 0.00 | 0.00 | 34 | 1011.5 |
| 20260503202437 | 72 | 269 | 4.0 | 5.0 | 0.00 | 0.00 | 0.00 | 35 | 1011.4 |
| 20260503201935 | 72 | 0 | 4.0 | 6.0 | 0.00 | 0.00 | 0.00 | 36 | 1011.5 |
| 20260503201432 | 71 | 284 | 4.0 | 5.0 | 0.00 | 0.00 | 0.00 | 33 | 1011.5 |
| 20260503200930 | 72 | 248 | 3.0 | 3.0 | 0.00 | 0.00 | 0.00 | 33 | 1011.6 |
| 20260503200426 | 72 | 227 | 2.0 | 5.0 | 0.00 | 0.00 | 0.00 | 33 | 1011.6 |
| 20260503195923 | 72 | 217 | 3.0 | 5.0 | 0.00 | 0.00 | 0.00 | 32 | 1011.8 |
| 20260503195420 | 72 | 220 | 5.0 | 7.0 | 0.00 | 0.00 | 0.00 | 32 | 1011.8 |
| 20260503194916 | 72 | 35 | 6.0 | 7.0 | 0.00 | 0.00 | 0.00 | 33 | 1011.5 |
| 20260503194413 | 72 | 21 | 5.0 | 6.0 | 0.00 | 0.00 | 0.00 | 33 | 1011.5 |
| 20260503193909 | 72 | 102 | 1.0 | 2.0 | 0.00 | 0.00 | 0.00 | 34 | 1011.7 |
| 20260503193404 | 71 | 322 | 4.0 | 6.0 | 0.00 | 0.00 | 0.00 | 34 | 1011.6 |
| 20260503192900 | 72 | 198 | 4.0 | 6.0 | 0.00 | 0.00 | 0.00 | 34 | 1011.6 |
| 20260503192356 | 72 | 322 | 3.0 | 7.0 | 0.00 | 0.00 | 0.00 | 36 | 1011.8 |
| 20260503191853 | 71 | 286 | 5.0 | 7.0 | 0.00 | 0.00 | 0.00 | 36 | 1011.9 |
| 20260503191350 | 71 | 302 | 2.0 | 3.0 | 0.00 | 0.00 | 0.00 | 36 | 1011.8 |
| 20260503190846 | 71 | 306 | 3.0 | 5.0 | 0.00 | 0.00 | 0.00 | 36 | 1012.0 |
| 20260503190344 | 71 | 267 | 8.0 | 9.0 | 0.00 | 0.00 | 0.00 | 36 | 1011.8 |
| 20260503185841 | 70 | 177 | 1.0 | 2.0 | 0.00 | 0.00 | 0.00 | 37 | 1011.7 |
| 20260503185337 | 70 | 251 | 3.0 | 3.0 | 0.00 | 0.00 | 0.00 | 37 | 1011.6 |
| 20260503184837 | 71 | 257 | 3.0 | 5.0 | 0.00 | 0.00 | 0.00 | 36 | 1012.0 |
| 20260503184333 | 71 | 337 | 5.0 | 6.0 | 0.00 | 0.00 | 0.00 | 37 | 1011.9 |
| 20260503183829 | 71 | 219 | 2.0 | 3.0 | 0.00 | 0.00 | 0.00 | 38 | 1012.0 |
| 20260503183326 | 71 | 2 | 2.0 | 2.0 | 0.00 | 0.00 | 0.00 | 39 | 1012.0 |
| 20260503182823 | 70 | 279 | 2.0 | 2.0 | 0.00 | 0.00 | 0.00 | 39 | 1012.1 |
| 20260503182323 | 69 | 219 | 2.0 | 2.0 | 0.00 | 0.00 | 0.00 | 39 | 1012.0 |
| 20260503181819 | 69 | 227 | 3.0 | 5.0 | 0.00 | 0.00 | 0.00 | 40 | 1012.3 |
| 20260503181317 | 69 | 183 | 3.0 | 3.0 | 0.00 | 0.00 | 0.00 | 41 | 1012.1 |
| 20260503180813 | 69 | 217 | 3.0 | 3.0 | 0.00 | 0.00 | 0.00 | 41 | 1012.2 |
| 20260503180311 | 68 | 230 | 1.0 | 1.0 | 0.00 | 0.00 | 0.00 | 39 | 1012.2 |
| 20260503175807 | 68 | 223 | 5.0 | 6.0 | 0.00 | 0.00 | 0.00 | 39 | 1012.3 |
| 20260503175305 | 68 | 275 | 3.0 | 5.0 | 0.00 | 0.00 | 0.00 | 41 | 1012.3 |
| 20260503174800 | 69 | 308 | 3.0 | 3.0 | 0.00 | 0.00 | 0.00 | 39 | 1012.4 |
| 20260503174259 | 68 | 225 | 2.0 | 2.0 | 0.00 | 0.00 | 0.00 | 42 | 1012.5 |
| 20260503173754 | 68 | 215 | 1.0 | 2.0 | 0.00 | 0.00 | 0.00 | 42 | 1012.5 |
| 20260503173250 | 67 | 222 | 1.0 | 2.0 | 0.00 | 0.00 | 0.00 | 46 | 1012.5 |
| 20260503172747 | 67 | 211 | 2.0 | 2.0 | 0.00 | 0.00 | 0.00 | 40 | 1012.7 |
| 20260503172244 | 67 | 278 | 2.0 | 2.0 | 0.00 | 0.00 | 0.00 | 42 | 1012.6 |
| 20260503171741 | 67 | 241 | 3.0 | 5.0 | 0.00 | 0.00 | 0.00 | 41 | 1012.6 |
| 20260503171238 | 67 | 242 | 3.0 | 3.0 | 0.00 | 0.00 | 0.00 | 40 | 1012.5 |
| 20260503170735 | 66 | 257 | 4.0 | 7.0 | 0.00 | 0.00 | 0.00 | 43 | 1012.8 |
| 20260503170231 | 66 | 236 | 6.0 | 7.0 | 0.00 | 0.00 | 0.00 | 42 | 1012.9 |
| 20260503160153 | 64 | 68 | 3.0 | 3.0 | 0.00 | 0.00 | 0.00 | 41 | 1012.8 |
| 20260503150623 | 62 | 211 | 3.0 | 5.0 | 0.00 | 0.00 | 0.00 | 46 | 1013.0 |
| 20260503150119 | 62 | 208 | 1.0 | 2.0 | 0.00 | 0.00 | 0.00 | 45 | 1013.0 |
| 20260503131013 | 57 | 182 | 1.0 | 1.0 | 0.00 | 0.00 | 0.00 | 55 | 1013.3 |
| 20260503130510 | 56 | 199 | 1.0 | 1.0 | 0.00 | 0.00 | 0.00 | 55 | 1013.5 |
| 20260503110401 | 50 | 219 | 0.0 | 0.0 | 0.00 | 0.00 | 0.00 | 75 | 1013.3 |
| 20260503090252 | 52 | 208 | 0.0 | 0.0 | 0.00 | 0.00 | 0.00 | 56 | 1014.2 |
| 20260503081220 | 53 | 211 | 1.0 | 1.0 | 0.00 | 0.00 | 0.00 | 55 | 1014.7 |
| 20260503080715 | 53 | 211 | 0.0 | 1.0 | 0.00 | 0.00 | 0.00 | 55 | 1014.9 |
| 20260503080213 | 54 | 193 | 0.0 | 0.0 | 0.00 | 0.00 | 0.00 | 57 | 1014.9 |
| 20260503072649 | 54 | 217 | 1.0 | 2.0 | 0.00 | 0.00 | 0.00 | 56 | 1015.0 |
| 20260503072146 | 55 | 186 | 2.0 | 2.0 | 0.00 | 0.00 | 0.00 | 55 | 1015.2 |
| 20260503071643 | 55 | 184 | 1.0 | 1.0 | 0.00 | 0.00 | 0.00 | 55 | 1015.5 |
| 20260503071139 | 55 | 218 | 1.0 | 1.0 | 0.00 | 0.00 | 0.00 | 55 | 1015.2 |
| 20260503070636 | 56 | 210 | 0.0 | 0.0 | 0.00 | 0.00 | 0.00 | 55 | 1015.6 |
| 20260503070135 | 56 | 207 | 1.0 | 1.0 | 0.00 | 0.00 | 0.00 | 55 | 1015.6 |
| 20260503055049 | 57 | 231 | 0.0 | 0.0 | 0.00 | 0.00 | 0.00 | 55 | 1016.7 |
| 20260503054545 | 58 | 235 | 1.0 | 1.0 | 0.00 | 0.00 | 0.00 | 55 | 1016.7 |
| 20260503054043 | 58 | 218 | 1.0 | 1.0 | 0.00 | 0.00 | 0.00 | 52 | 1016.8 |
| 20260503053541 | 56 | 2 | 6.0 | 9.0 | 0.00 | 0.00 | 0.00 | 56 | 1017.1 |
| 20260503053038 | 56 | 212 | 0.0 | 0.0 | 0.00 | 0.00 | 0.00 | 55 | 1016.9 |
| 20260503052535 | 57 | 211 | 0.0 | 0.0 | 0.00 | 0.00 | 0.00 | 54 | 1017.0 |
| 20260503052031 | 57 | 212 | 0.0 | 0.0 | 0.00 | 0.00 | 0.00 | 52 | 1016.9 |
| 20260503051527 | 56 | 217 | 1.0 | 1.0 | 0.00 | 0.00 | 0.00 | 53 | 1016.9 |
| 20260503051025 | 56 | 215 | 0.0 | 0.0 | 0.00 | 0.00 | 0.00 | 53 | 1017.0 |
| 20260503050520 | 57 | 213 | 0.0 | 0.0 | 0.00 | 0.00 | 0.00 | 52 | 1016.7 |
| 20260503050018 | 57 | 214 | 0.0 | 1.0 | 0.00 | 0.00 | 0.00 | 52 | 1017.0 |
| 20260503045515 | 57 | 217 | 0.0 | 0.0 | 0.00 | 0.00 | 0.00 | 51 | 1016.7 |
| 20260503045012 | 57 | 210 | 1.0 | 1.0 | 0.00 | 0.00 | 0.00 | 50 | 1016.7 |
| 20260503044509 | 57 | 209 | 0.0 | 0.0 | 0.00 | 0.00 | 0.00 | 50 | 1016.9 |
| 20260503044006 | 57 | 215 | 0.0 | 0.0 | 0.00 | 0.00 | 0.00 | 50 | 1017.3 |
| 20260503043502 | 57 | 218 | 0.0 | 0.0 | 0.00 | 0.00 | 0.00 | 49 | 1017.3 |
| 20260503042959 | 57 | 221 | 1.0 | 1.0 | 0.00 | 0.00 | 0.00 | 49 | 1017.2 |
| 20260503042456 | 57 | 217 | 0.0 | 0.0 | 0.00 | 0.00 | 0.00 | 52 | 1017.3 |
| 20260503041952 | 56 | 223 | 0.0 | 1.0 | 0.00 | 0.00 | 0.00 | 50 | 1017.1 |
| 20260503041449 | 56 | 217 | 0.0 | 0.0 | 0.00 | 0.00 | 0.00 | 52 | 1017.4 |
| 20260503040947 | 57 | 220 | 0.0 | 0.0 | 0.00 | 0.00 | 0.00 | 52 | 1017.2 |
| 20260503040444 | 57 | 217 | 0.0 | 0.0 | 0.00 | 0.00 | 0.00 | 51 | 1017.3 |
| 20260503035941 | 57 | 212 | 0.0 | 0.0 | 0.00 | 0.00 | 0.00 | 51 | 1017.5 |
| 20260503035437 | 57 | 212 | 0.0 | 0.0 | 0.00 | 0.00 | 0.00 | 52 | 1017.7 |
| 20260503034935 | 57 | 214 | 0.0 | 0.0 | 0.00 | 0.00 | 0.00 | 51 | 1017.7 |
| 20260503034427 | 57 | 212 | 0.0 | 1.0 | 0.00 | 0.00 | 0.00 | 51 | 1017.8 |
| 20260503033924 | 57 | 209 | 1.0 | 1.0 | 0.00 | 0.00 | 0.00 | 50 | 1017.9 |
| 20260503033421 | 57 | 220 | 0.0 | 0.0 | 0.00 | 0.00 | 0.00 | 50 | 1018.2 |
| 20260503032919 | 57 | 211 | 0.0 | 0.0 | 0.00 | 0.00 | 0.00 | 51 | 1017.9 |
| 20260503032418 | 57 | 217 | 0.0 | 0.0 | 0.00 | 0.00 | 0.00 | 51 | 1018.2 |
| 20260503031915 | 57 | 220 | 0.0 | 0.0 | 0.00 | 0.00 | 0.00 | 51 | 1018.1 |
| 20260503031412 | 57 | 211 | 0.0 | 1.0 | 0.00 | 0.00 | 0.00 | 51 | 1018.1 |
| 20260503030909 | 57 | 214 | 0.0 | 1.0 | 0.00 | 0.00 | 0.00 | 50 | 1018.2 |
| 20260503030405 | 57 | 199 | 2.0 | 3.0 | 0.00 | 0.00 | 0.00 | 46 | 1018.3 |
| 20260503025901 | 56 | 213 | 1.0 | 1.0 | 0.00 | 0.00 | 0.00 | 50 | 1018.2 |
| 20260503025353 | 56 | 216 | 1.0 | 1.0 | 0.00 | 0.00 | 0.00 | 52 | 1018.2 |
| 20260503024850 | 56 | 216 | 0.0 | 0.0 | 0.00 | 0.00 | 0.00 | 52 | 1018.2 |
| 20260503024346 | 56 | 213 | 0.0 | 0.0 | 0.00 | 0.00 | 0.00 | 51 | 1018.3 |
| 20260503023843 | 57 | 212 | 0.0 | 0.0 | 0.00 | 0.00 | 0.00 | 50 | 1018.3 |
| 20260503023341 | 57 | 215 | 0.0 | 0.0 | 0.00 | 0.00 | 0.00 | 49 | 1018.4 |
| 20260503022837 | 57 | 211 | 0.0 | 0.0 | 0.00 | 0.00 | 0.00 | 48 | 1018.5 |
| 20260503022332 | 57 | 213 | 0.0 | 0.0 | 0.00 | 0.00 | 0.00 | 48 | 1018.3 |
| 20260503021829 | 57 | 207 | 0.0 | 0.0 | 0.00 | 0.00 | 0.00 | 47 | 1018.4 |
| 20260503021325 | 57 | 216 | 0.0 | 0.0 | 0.00 | 0.00 | 0.00 | 47 | 1018.5 |
| 20260503020822 | 57 | 210 | 1.0 | 2.0 | 0.00 | 0.00 | 0.00 | 44 | 1018.5 |
| 20260503020321 | 57 | 211 | 0.0 | 0.0 | 0.00 | 0.00 | 0.00 | 48 | 1018.5 |
| 20260503015817 | 57 | 206 | 1.0 | 1.0 | 0.00 | 0.00 | 0.00 | 50 | 1018.5 |
| 20260503015314 | 57 | 192 | 1.0 | 1.0 | 0.00 | 0.00 | 0.00 | 49 | 1018.3 |
| 20260503014809 | 57 | 210 | 0.0 | 0.0 | 0.00 | 0.00 | 0.00 | 47 | 1018.6 |
| 20260503014307 | 57 | 216 | 0.0 | 0.0 | 0.00 | 0.00 | 0.00 | 47 | 1018.5 |
| 20260503013804 | 58 | 214 | 0.0 | 0.0 | 0.00 | 0.00 | 0.00 | 46 | 1018.6 |
| 20260503013302 | 58 | 208 | 1.0 | 1.0 | 0.00 | 0.00 | 0.00 | 45 | 1018.3 |
| 20260503012759 | 58 | 208 | 1.0 | 1.0 | 0.00 | 0.00 | 0.00 | 44 | 1018.6 |
| 20260503012256 | 59 | 211 | 0.0 | 0.0 | 0.00 | 0.00 | 0.00 | 43 | 1018.6 |
| 20260503011753 | 59 | 194 | 1.0 | 1.0 | 0.00 | 0.00 | 0.00 | 43 | 1018.6 |
| 20260503011250 | 59 | 211 | 0.0 | 0.0 | 0.00 | 0.00 | 0.00 | 43 | 1018.5 |
| 20260503010746 | 59 | 215 | 0.0 | 0.0 | 0.00 | 0.00 | 0.00 | 41 | 1018.7 |
| 20260503010243 | 59 | 197 | 1.0 | 1.0 | 0.00 | 0.00 | 0.00 | 43 | 1018.7 |
| 20260503005740 | 59 | 212 | 0.0 | 0.0 | 0.00 | 0.00 | 0.00 | 43 | 1018.6 |
| 20260503005237 | 59 | 216 | 0.0 | 0.0 | 0.00 | 0.00 | 0.00 | 46 | 1018.5 |
| 20260503004733 | 60 | 216 | 0.0 | 0.0 | 0.00 | 0.00 | 0.00 | 42 | 1018.7 |
| 20260503004232 | 60 | 214 | 0.0 | 0.0 | 0.00 | 0.00 | 0.00 | 41 | 1018.7 |
| 20260503003729 | 60 | 202 | 1.0 | 1.0 | 0.00 | 0.00 | 0.00 | 40 | 1018.8 |
| 20260503003226 | 60 | 219 | 1.0 | 1.0 | 0.00 | 0.00 | 0.00 | 39 | 1018.9 |
| 20260503002722 | 60 | 228 | 2.0 | 2.0 | 0.00 | 0.00 | 0.00 | 39 | 1018.7 |
| 20260503002219 | 60 | 213 | 1.0 | 1.0 | 0.00 | 0.00 | 0.00 | 38 | 1019.0 |
| 20260503001714 | 60 | 208 | 1.0 | 2.0 | 0.00 | 0.00 | 0.00 | 38 | 1019.2 |
| 20260503001212 | 60 | 209 | 2.0 | 2.0 | 0.00 | 0.00 | 0.00 | 38 | 1019.2 |
| 20260503000709 | 61 | 251 | 2.0 | 3.0 | 0.00 | 0.00 | 0.00 | 37 | 1019.2 |
| 20260503000207 | 61 | 201 | 3.0 | 5.0 | 0.00 | 0.00 | 0.00 | 37 | 1019.3 |
| 20260502235704 | 61 | 232 | 1.0 | 2.0 | 0.00 | 0.00 | 0.00 | 36 | 1019.1 |
| 20260502235202 | 61 | 208 | 1.0 | 1.0 | 0.00 | 0.00 | 0.00 | 38 | 1019.2 |
| 20260502234657 | 61 | 222 | 2.0 | 2.0 | 0.00 | 0.00 | 0.00 | 37 | 1019.3 |
| 20260502234155 | 61 | 188 | 1.0 | 1.0 | 0.00 | 0.00 | 0.00 | 38 | 1019.2 |
| 20260502233651 | 61 | 189 | 2.0 | 3.0 | 0.00 | 0.00 | 0.00 | 36 | 1019.3 |
| 20260502233148 | 62 | 243 | 1.0 | 1.0 | 0.00 | 0.00 | 0.00 | 36 | 1019.3 |
| 20260502232644 | 61 | 223 | 2.0 | 2.0 | 0.00 | 0.00 | 0.00 | 36 | 1019.7 |
| 20260502232141 | 61 | 221 | 1.0 | 1.0 | 0.00 | 0.00 | 0.00 | 36 | 1019.6 |
| 20260502231637 | 61 | 199 | 1.0 | 2.0 | 0.00 | 0.00 | 0.00 | 37 | 1019.9 |
| 20260502231135 | 61 | 224 | 1.0 | 1.0 | 0.00 | 0.00 | 0.00 | 36 | 1019.6 |
| 20260502230634 | 61 | 208 | 1.0 | 2.0 | 0.00 | 0.00 | 0.00 | 37 | 1019.8 |
| 20260502230132 | 61 | 208 | 2.0 | 2.0 | 0.00 | 0.00 | 0.00 | 38 | 1019.6 |
| 20260502225627 | 61 | 229 | 2.0 | 2.0 | 0.00 | 0.00 | 0.00 | 37 | 1019.9 |
| 20260502225125 | 60 | 215 | 0.0 | 0.0 | 0.00 | 0.00 | 0.00 | 37 | 1019.8 |
| 20260502224621 | 60 | 189 | 3.0 | 3.0 | 0.00 | 0.00 | 0.00 | 38 | 1020.0 |
| 20260502224118 | 61 | 231 | 3.0 | 3.0 | 0.00 | 0.00 | 0.00 | 36 | 1020.1 |
| 20260502223615 | 61 | 229 | 2.0 | 2.0 | 0.00 | 0.00 | 0.00 | 37 | 1020.3 |
| 20260502223114 | 61 | 12 | 3.0 | 5.0 | 0.00 | 0.00 | 0.00 | 36 | 1020.0 |
| 20260502222611 | 62 | 229 | 5.0 | 8.0 | 0.00 | 0.00 | 0.00 | 36 | 1020.0 |
| 20260502222107 | 63 | 213 | 1.0 | 1.0 | 0.00 | 0.00 | 0.00 | 36 | 1019.9 |
| 20260502221603 | 63 | 215 | 1.0 | 2.0 | 0.00 | 0.00 | 0.00 | 34 | 1020.2 |
| 20260502221100 | 63 | 228 | 1.0 | 2.0 | 0.00 | 0.00 | 0.00 | 35 | 1020.2 |
| 20260502220556 | 64 | 263 | 3.0 | 5.0 | 0.00 | 0.00 | 0.00 | 35 | 1020.1 |
| 20260502220052 | 63 | 224 | 2.0 | 3.0 | 0.00 | 0.00 | 0.00 | 34 | 1020.4 |
| 20260502215550 | 62 | 199 | 3.0 | 3.0 | 0.00 | 0.00 | 0.00 | 36 | 1020.3 |
| 20260502215047 | 63 | 219 | 3.0 | 3.0 | 0.00 | 0.00 | 0.00 | 35 | 1020.3 |
| 20260502214543 | 62 | 235 | 1.0 | 2.0 | 0.00 | 0.00 | 0.00 | 36 | 1020.4 |
| 20260502214041 | 62 | 214 | 3.0 | 6.0 | 0.00 | 0.00 | 0.00 | 35 | 1020.4 |
| 20260502213538 | 64 | 209 | 3.0 | 3.0 | 0.00 | 0.00 | 0.00 | 33 | 1020.5 |
| 20260502213036 | 62 | 228 | 1.0 | 2.0 | 0.00 | 0.00 | 0.00 | 35 | 1020.7 |
| 20260502212534 | 62 | 217 | 2.0 | 2.0 | 0.00 | 0.00 | 0.00 | 33 | 1020.9 |
| 20260502212031 | 61 | 227 | 2.0 | 3.0 | 0.00 | 0.00 | 0.00 | 35 | 1021.0 |